Retour au catalogue

COSMOS 2251 DEB

ActifLEO
NORAD 34784·DEBRIS·🇷🇺 Russia

Lancé Jun 16, 1993 depuis Plesetsk Cosmodrome

Loading…

Prochains Passages (prochaines 24 heures)

TLE

FraisSource: Space-Track

Époque: Sep 14, 2026, 03:32 UTC

1 34784U 93036AAM 26257.14784527  .00001051  00000-0  21269-3 0  9997
2 34784  74.0065 156.6671 0051166 256.3821 103.1644 14.61871309925586

Suivez COSMOS 2251 DEB en temps réel avec AllMySat

Download on the App Store